Location: Berua Church
(35.0423°N, 88.5987°W)
Time: 11:25:32
(UTC+00:00)

Okean 3 - Pass Details

Date: 08 December 2019
Orbit: 577 x 600 km, 82.5° (Epoch: 19 January)

Event Time Altitude Azimuth Distance (km) Brightness Sun altitude
Rises 12:13:00 0° 354° (N) 2,799 6.6 -7.7°
Reaches altitude 10° 12:15:11 10° 355° (N) 1,898 5.8 -7.3°
Maximum altitude 12:19:23 84° 81° (E) 589 3.5 -6.5°
Drops below altitude 10° 12:23:34 10° 172° (S) 1,895 6.5 -5.7°
Sets 12:25:45 0° 173° (S) 2,795 7.4 -5.3°
